Regional Weather Roundup
Issued by NWS Wilmington, NC

Home | Current Version | Previous Version | Text Only | Print | Product List | Glossary On
Versions: 1 2 3 4 5 6 7 8 9 10 11 12 13 14 15 16 17 18 19 20 21 22 23 24 25 26 27
000
ASUS42 KILM 240710
RWRILM
RWRILM
REGIONAL HOURLY WEATHER ROUNDUP
NATIONAL WEATHER SERVICE WILMINGTON NC
300 AM EDT THU APR 24 2014

NOTE: "FAIR" INDICATES FEW OR NO CLOUDS BELOW 12,000 FEET WITH NO
SIGNIFICANT WEATHER AND/OR OBSTRUCTIONS TO VISIBILITY.

...............WFO WILMINGTON COUNTY WARNING AREA...............

......COASTAL NC AND SC COUNTIES......

CITY           SKY/WX    TMP DP  RH WIND       PRES   REMARKS
WILMINGTON     CLEAR     48  41  76 N6        29.98R
SOUTHPORT      CLEAR     51  39  63 N3        29.97S
N MYRTLE BEACH CLEAR     48  43  82 CALM      29.97S
MYRTLE BEACH   CLEAR     54  50  87 CALM      29.97S

......INLAND NC AND SC COUNTIES.......

CITY           SKY/WX    TMP DP  RH WIND       PRES   REMARKS
LUMBERTON      CLEAR     50  39  66 NE9       29.99S
ELIZABETHTOWN  CLEAR     51  38  63 CALM      30.00R
WHITEVILLE     CLEAR     47  44  87 CALM      29.98S
FLORENCE       CLEAR     54  38  54 NE8       29.99R
DARLINGTON     CLEAR     52  37  58 N6        30.01S

....................REST OF NORTH CAROLINA......................

.........EASTERN NC.........

CITY           SKY/WX    TMP DP  RH WIND       PRES   REMARKS
CAPE HATTERAS  CLEAR     56  42  59 VRB3      29.99R
JACKSONVILLE   CLEAR     48  48 100 N7        30.01S
MOREHEAD CITY  CLEAR     53  49  86 NE5       29.99R
KENANSVILLE    CLEAR     52  35  53 CALM      30.02R
NEW BERN       CLEAR     49  43  80 CALM      30.02R
ELIZABETH CITY CLEAR     52  35  52 N14       30.00S

.........CENTRAL NC.........

CITY           SKY/WX    TMP DP  RH WIND       PRES   REMARKS
RALEIGH DURHAM CLEAR     52  30  43 NE3       30.03R
ROCKY MOUNT    CLEAR     47  37  68 CALM      30.03R
ROANOKE RAPIDS NOT AVBL
FAYETTEVILLE   CLEAR     50  36  58 N7        30.01R
HOFFMAN        CLEAR     46  39  78 NW1       30.03S

.........WESTERN NC.........

CITY           SKY/WX    TMP DP  RH WIND       PRES   REMARKS
CHARLOTTE      CLEAR     55  30  38 E6        30.01S
GREENSBORO     CLEAR     51  29  42 N6        30.02S
HICKORY        NOT AVBL
BOONE          NOT AVBL
ASHEVILLE      NOT AVBL

.....................REST OF SOUTH CAROLINA.....................

.........EASTERN SC.........

CITY           SKY/WX    TMP DP  RH WIND       PRES   REMARKS
CHARLESTON     CLEAR     61  49  64 NE9       29.94S
BEAUFORT MCAS  CLEAR     58  56  93 E3        29.92S
HILTON HEAD    NOT AVBL

.........CENTRAL SC.........

CITY           SKY/WX    TMP DP  RH WIND       PRES   REMARKS
COLUMBIA       CLEAR     52  46  80 NE5       29.96F
ORANGEBURG     CLEAR     53  46  77 NE6       29.95F
SUMTER SHAW    CLEAR     55  39  55 NE13      29.96S

.........WESTERN SC.........

CITY           SKY/WX    TMP DP  RH WIND       PRES   REMARKS
GREENVILLE     NOT AVBL
ROCK HILL      CLEAR     49  35  58 CALM      30.01S
ANDERSON       CLEAR     55  32  41 E9        29.97R
CLEMSON        NOT AVBL
GREENWOOD      CLEAR     53  36  52 NE3       29.99S


...................COASTAL AND OFFSHORE REPORTS..................

................LOCAL PIERS AND NC RESERVE................


STATION/POSITION TIME  SKY/WX   TEMP    WIND        PRES    VSBY
                                AIR SEA DIR/SP/G
                 (UTC)          (F)     (DEG/KT/KT) (MB)    (MI)
JOHNY MRCER PIER 0700            56 62  340/  9/ 12 1014.5R
NC RESRV MASNBRO 0600            55     300/  2     1014.0S
OCEAN CREST PIER 0700            56 63   20/  4/  5 1013.7S
SPRINGMAID  PIER 0700            63 61   20/  6/  7 1014.6S


................COASTAL AND OFFSHORE BUOYS................


STATION/POSITION TIME  SKY/WX   TEMP    WIND        PRES    VSBY
                                AIR SEA DIR/SP/G
                 (UTC)          (F)     (DEG/KT/KT) (MB)    (MI)
DIMNDSHOAL 41025 0700            60 75   10/ 19/ 23 1014.5F
WVE H/P(F/S)=  4/ 8 WND WVE H/P(F/S)=  3/ 8 SWL H/P/D(F/S/D)=  2/ 60/13

CAPE LOOKOUT     0600            61      30/  9/ 12 1014.9R
ONSLOW BAY 41036 0700            65 69   10/ 14/ 16 1014.8R
WVE H/P(F/S)=  2/ 9 WND WVE H/P(F/S)=  2/ 6 SWL H/P/D(F/S/D)=  2/ 90/ 9

5 WRITEBCH 41038 0600            63 63   30/  4/  6 1014.6S
MASONBORO  41110 0700               62                N/A
WVE H/P(F/S)=  2/ 9 WND WVE H/P(F/S)=  2/ 9

WILM HARBR 41108 0700               64                N/A
WVE H/P(F/S)=  2/ 8 WND WVE H/P(F/S)=  2/ 8

27WRITEBCH 41037 0600            66      40/ 12/ 16 1014.3R
FRYING PAN 41013 0700            68 68   80/  8/  8 1014.1F
WVE H/P(F/S)=  3/ 9 SWL H/P/D(F/S/D)=  2/ 70/ 9

SUNST NRSH 41024 0600            61      40/  6/  8 1014.5R
CAPRS NRSH 41029 NOT AVBL
EDISTO     41004 0700            68 71   30/  8/ 10 1013.1F
WVE H/P(F/S)=  2/ 8 WND WVE H/P(F/S)=  2/ 4 SWL H/P/D(F/S/D)=  2/ 8



..........OFFSHORE BUOYS BEYOND 100 NM OFFSHORE...........
.....IN A TRIANGLE---HAT TO BERMUDA TO BAHAMAS TO HAT.....


STATION/POSITION TIME  SKY/WX   TEMP    WIND        PRES    VSBY
                                AIR SEA DIR/SP/G
                 (UTC)          (F)     (DEG/KT/KT) (MB)    (MI)
150E HAT   41001 NOT AVBL
W BERMUDA  41048 0611            65 69  300/ 23/ 29 1010.8R
WVE H/P(F/S)=  8/ 7 WND WVE H/P(F/S)=  8/ 7 SWL H/P/D(F/S/D)=  2/340/15

ATLANTIC S 41049 0648            75 75  260/ 17/ 19 1011.6F
WVE H/P(F/S)=  5/15 WND WVE H/P(F/S)=  3/ 7 SWL H/P/D(F/S/D)=  3/15

E BAHAMAS  41046 NOT AVBL
NE BAHAMAS 41047 0604            74 74  290/ 10/ 12 1013.7F
WVE H/P(F/S)=  4/ 8 WND WVE H/P(F/S)=  2/ 5 SWL H/P/D(F/S/D)=  3/ 90/ 8

120E CANVRL41010 0700            74 75  220/  2/  4 1014.2F
WVE H/P(F/S)=  2/ 8 WND WVE H/P(F/S)=  2/ 4 SWL H/P/D(F/S/D)=  2/120/ 8


END



USA.gov is the U.S. government's official web portal to all federal, state and local government web resources and services.